Weather History for Monett, MO

Change the Weather History Date:

Friday, December 28, 2012

  Actual Average (KJLN) Record (KJLN)
Temperature  
Mean Temperature 29 °F 35 °F  
Max Temperature 32 °F 45 °F 69 °F (1984)
Min Temperature 26 °F 25 °F 0 °F (1983)
Degree Days  
Heating Degree Days 36 30  
Month to date heating degree days 771  
Since 1 July heating degree days 1528  
Cooling Degree Days 0 0  
Month to date cooling degree days 0  
Year to date cooling degree days 1698  
Moisture  
Dew Point 27 °F    
Average Humidity 86    
Maximum Humidity 100    
Minimum Humidity 59    
Precipitation  
Precipitation 0.00 in 0.07 in 0.38 in (1948)
Month to date precipitation 2.60  
Year to date precipitation 46.33  
Sea Level Pressure  
Sea Level Pressure 29.95 in    
Wind  
Wind Speed 6 mph (NW)    
Max Wind Speed 16 mph    
Max Gust Speed 22 mph    
Visibility 7 miles    
Events Rain , Snow    
T = Trace of Precipitation, MM = Missing Value Source: NWS Daily Summary

Daily Weather History Graph

Daily Weather History Graph

Search for Another Location

Airport:

Trip Planner

Search our weather history database for the weather conditions in past years. The results will help you decide how hot, cold, wet, or windy it might be!

Date:

Astronomy

Dec. 28, 2012 Rise Set
Actual Time 7:28 AM CST 5:07 PM CST
Civil Twilight 6:59 AM CST 5:36 PM CST
Nautical Twilight 6:26 AM CST 6:09 PM CST
Astronomical Twilight 5:55 AM CST 6:40 PM CST
Moon 5:43 PM CST (12/28) 7:24 AM CST (12/28)
Length of Visible Light 10h 37m
Length of Day
9h 39m
Full, 100% of the Moon is Illuminated
Dec 28
Full
Jan 4
Last Quarter
Jan 11
New
Jan 18
First Quarter
Jan 26
Full

Hourly Weather History & Observations

Time (CST) Temp. Windchill Dew Point Humidity Pressure Visibility Wind Dir Wind Speed Gust Speed Precip Events Conditions
12:15 AM 32.0 °F 26.4 °F 26.6 °F 80% 29.95 in 10.0 mi South 5.8 mph - N/A   Overcast
12:35 AM 32.0 °F 27.5 °F 26.6 °F 80% 29.93 in 10.0 mi South 4.6 mph - N/A   Overcast
12:55 AM 32.0 °F 26.4 °F 26.6 °F 80% 29.94 in 10.0 mi South 5.8 mph - N/A   Overcast
1:15 AM 32.0 °F 27.5 °F 28.4 °F 87% 29.94 in 10.0 mi SSW 4.6 mph - N/A   Overcast
1:35 AM 32.0 °F 25.6 °F 28.4 °F 87% 29.95 in 10.0 mi SSW 6.9 mph - N/A   Overcast
1:55 AM 32.0 °F 26.4 °F 28.4 °F 87% 29.96 in 10.0 mi SSW 5.8 mph - N/A   Overcast
2:15 AM 32.0 °F 28.7 °F 28.4 °F 87% 29.96 in 10.0 mi SSW 3.5 mph - N/A   Overcast
2:35 AM 32.0 °F 26.4 °F 28.4 °F 87% 29.96 in 10.0 mi SSW 5.8 mph - N/A   Overcast
2:55 AM 32.0 °F 28.7 °F 28.4 °F 87% 29.95 in 10.0 mi South 3.5 mph - N/A   Overcast
3:15 AM 32.0 °F 28.7 °F 30.2 °F 93% 29.95 in 10.0 mi SSE 3.5 mph - N/A   Overcast
3:35 AM 32.0 °F 28.7 °F 30.2 °F 93% 29.95 in 10.0 mi South 3.5 mph - N/A   Overcast
3:55 AM 32.0 °F 27.5 °F 30.2 °F 93% 29.95 in 10.0 mi South 4.6 mph - N/A   Overcast
4:15 AM 32.0 °F 28.7 °F 30.2 °F 93% 29.95 in 7.0 mi South 3.5 mph - N/A   Overcast
4:35 AM 32.0 °F 28.7 °F 30.2 °F 93% 29.94 in 7.0 mi SSE 3.5 mph - N/A   Overcast
4:55 AM 32.0 °F 28.7 °F 30.2 °F 93% 29.95 in 7.0 mi WSW 3.5 mph - N/A   Overcast
5:15 AM 32.0 °F - 30.2 °F 93% 29.93 in 7.0 mi Calm Calm - N/A   Overcast
5:35 AM 32.0 °F - 30.2 °F 93% 29.94 in 7.0 mi Calm Calm - N/A   Overcast
5:55 AM 32.0 °F - 30.2 °F 93% 29.93 in 5.0 mi Calm Calm - N/A   Overcast
6:15 AM 32.0 °F - 30.2 °F 93% 29.93 in 5.0 mi Calm Calm - N/A   Overcast
6:35 AM 32.0 °F - 30.2 °F 93% 29.94 in 7.0 mi Calm Calm - N/A   Overcast
6:55 AM 32.0 °F 28.7 °F 30.2 °F 93% 29.94 in 7.0 mi North 3.5 mph - N/A   Overcast
7:35 AM 32.0 °F 27.5 °F 30.2 °F 93% 29.94 in 5.0 mi NNW 4.6 mph - N/A   Overcast
7:55 AM 32.0 °F 26.4 °F 30.2 °F 93% 29.92 in 3.0 mi North 5.8 mph - N/A   Overcast
8:15 AM 32.0 °F 28.7 °F 30.2 °F 93% 29.93 in 2.5 mi NE 3.5 mph - N/A   Overcast
8:35 AM 32.0 °F 26.4 °F 30.2 °F 93% 29.93 in 2.5 mi NNE 5.8 mph - N/A   Mostly Cloudy
8:55 AM 32.0 °F 28.7 °F 30.2 °F 93% 29.94 in 2.5 mi NNE 3.5 mph - N/A   Mostly Cloudy
9:15 AM 32.0 °F - 30.2 °F 93% 29.96 in 2.5 mi Calm Calm - N/A   Overcast
9:55 AM 32.0 °F 26.4 °F 30.2 °F 93% 29.93 in 2.5 mi North 5.8 mph - N/A   Overcast
10:15 AM 32.0 °F 26.4 °F 30.2 °F 93% 29.93 in 2.5 mi NNE 5.8 mph - N/A   Overcast
10:35 AM 32.0 °F 26.4 °F 30.2 °F 93% 29.94 in 2.0 mi North 5.8 mph - N/A   Overcast
10:55 AM 32.0 °F 27.5 °F 30.2 °F 93% 29.94 in 2.0 mi North 4.6 mph - N/A   Overcast
11:15 AM 32.0 °F 28.7 °F 30.2 °F 93% 29.94 in 2.5 mi NNE 3.5 mph - N/A   Overcast
11:35 AM 32.0 °F 28.7 °F 30.2 °F 93% 29.93 in 2.5 mi NNE 3.5 mph - N/A   Overcast
11:55 AM 32.0 °F 27.5 °F 30.2 °F 93% 29.93 in 2.5 mi North 4.6 mph - N/A   Overcast
12:15 PM 32.0 °F 27.5 °F 30.2 °F 93% 29.92 in 3.0 mi NNW 4.6 mph - N/A   Overcast
12:55 PM 32.0 °F 28.7 °F 30.2 °F 93% 29.92 in 3.0 mi NW 3.5 mph - N/A   Overcast
1:15 PM 32.0 °F 27.5 °F 30.2 °F 93% 29.91 in 4.0 mi West 4.6 mph - N/A Snow Light Snow
1:35 PM 32.0 °F 26.4 °F 28.4 °F 87% 29.91 in 5.0 mi West 5.8 mph - N/A   Haze
1:55 PM 32.0 °F 26.4 °F 30.2 °F 93% 29.89 in 2.5 mi WNW 5.8 mph - N/A Snow Light Snow
2:15 PM 32.0 °F 26.4 °F 30.2 °F 93% 29.89 in 1.0 mi WNW 5.8 mph - N/A Snow Light Snow
2:35 PM 32.0 °F 27.5 °F 32.0 °F 100% 29.89 in 2.5 mi WNW 4.6 mph - N/A   Overcast
2:55 PM 32.0 °F 26.4 °F 32.0 °F 100% 29.90 in 4.0 mi WNW 5.8 mph - N/A Rain Light Rain
3:15 PM 32.0 °F 25.6 °F 30.2 °F 93% 29.90 in 4.0 mi NW 6.9 mph - N/A Snow Light Snow
3:35 PM 32.0 °F 26.4 °F 30.2 °F 93% 29.90 in 5.0 mi NW 5.8 mph - N/A   Overcast
3:55 PM 32.0 °F 24.2 °F 28.4 °F 87% 29.91 in 7.0 mi NW 9.2 mph - N/A   Overcast
4:15 PM 32.0 °F 23.0 °F 28.4 °F 87% 29.92 in 7.0 mi WNW 11.5 mph - N/A   Overcast
4:35 PM 32.0 °F 23.0 °F 28.4 °F 87% 29.91 in 7.0 mi NW 11.5 mph - N/A   Overcast
4:55 PM 32.0 °F 23.6 °F 28.4 °F 87% 29.92 in 7.0 mi NW 10.4 mph - N/A   Overcast
5:15 PM 32.0 °F 24.8 °F 28.4 °F 87% 29.92 in 10.0 mi NW 8.1 mph - N/A   Overcast
5:35 PM 32.0 °F 24.8 °F 26.6 °F 80% 29.93 in 10.0 mi NW 8.1 mph - N/A   Overcast
5:55 PM 32.0 °F 23.0 °F 26.6 °F 80% 29.93 in 10.0 mi NW 11.5 mph - N/A   Overcast
6:15 PM 32.0 °F 23.6 °F 26.6 °F 80% 29.94 in 10.0 mi NW 10.4 mph - N/A   Overcast
6:35 PM 32.0 °F 24.2 °F 26.6 °F 80% 29.95 in 10.0 mi NW 9.2 mph - N/A   Overcast
6:55 PM 30.2 °F 20.8 °F 24.8 °F 80% 29.95 in 10.0 mi NW 11.5 mph 16.1 mph N/A   Overcast
7:15 PM 30.2 °F 19.8 °F 24.8 °F 80% 29.96 in 10.0 mi WNW 13.8 mph - N/A   Overcast
7:35 PM 30.2 °F 20.2 °F 23.0 °F 75% 29.96 in 10.0 mi NW 12.7 mph 17.3 mph N/A   Overcast
8:15 PM 30.2 °F 18.9 °F 23.0 °F 75% 29.98 in 10.0 mi NW 16.1 mph 19.6 mph N/A   Overcast
8:35 PM 30.2 °F 20.8 °F 23.0 °F 75% 29.98 in 10.0 mi NW 11.5 mph 16.1 mph N/A   Overcast
8:55 PM 30.2 °F 21.3 °F 23.0 °F 75% 29.98 in 10.0 mi WNW 10.4 mph - N/A   Overcast
9:15 PM 28.4 °F 18.0 °F 21.2 °F 74% 29.99 in 10.0 mi NW 12.7 mph 18.4 mph N/A   Overcast
9:35 PM 28.4 °F 20.4 °F 21.2 °F 74% 30.00 in 10.0 mi WNW 8.1 mph - N/A   Overcast
9:55 PM 28.4 °F 18.5 °F 21.2 °F 74% 30.00 in 10.0 mi NW 11.5 mph - N/A   Overcast
10:15 PM 28.4 °F 17.5 °F 19.4 °F 69% 30.01 in 10.0 mi NW 13.8 mph 17.3 mph N/A   Overcast
10:35 PM 28.4 °F 18.0 °F 19.4 °F 69% 30.02 in 10.0 mi NW 12.7 mph 19.6 mph N/A   Overcast
10:55 PM 28.4 °F 17.0 °F 17.6 °F 64% 30.02 in 10.0 mi NW 15.0 mph 21.9 mph N/A   Overcast
11:15 PM 26.6 °F 15.2 °F 17.6 °F 69% 30.03 in 10.0 mi NW 13.8 mph 19.6 mph N/A   Overcast
11:35 PM 26.6 °F 16.2 °F 15.8 °F 64% 30.03 in 10.0 mi NW 11.5 mph - N/A   Overcast
11:55 PM 26.6 °F 15.7 °F 14.0 °F 59% 30.03 in 10.0 mi WNW 12.7 mph - N/A   Overcast